Hill City, KS

10:27 PM CDT on July 22, 2017 (GMT -0500)
Hill City Municipal

Weather History for KHLC - January, 2015

Change the Weather History Date:

Thursday, January 8, 2015

  Actual Average Record
Temperature  
Mean Temperature 29 °F 29 °F  
Max Temperature 48 °F 42 °F 74 °F (2003)
Min Temperature 9 °F 16 °F -16 °F (1942)
Degree Days  
Heating Degree Days 36    
Moisture  
Dew Point 17 °F    
Average Humidity 63    
Maximum Humidity 74    
Minimum Humidity 52    
Precipitation  
Precipitation 0.00 in 0.01 in 0.01 in (2008)
Month to date precipitation 0.01 0.07  
Year to date precipitation 0.01 0.07  
Sea Level Pressure  
Sea Level Pressure 30.27 in    
Wind  
Wind Speed 14 mph (NW)    
Max Wind Speed 25 mph    
Max Gust Speed 36 mph    
Visibility 10 miles    
Events      
T = Trace of Precipitation, MM = Missing Value Source: NWS Daily Summary

Daily Weather History Graph

Daily Weather History Graph

Search for Another Location

Airport or City:

Trip Planner

Search our weather history database for the weather conditions in past years. The results will help you decide how hot, cold, wet, or windy it might be!

Date:

Astronomy

Jan. 08, 2015 Rise Set
Actual Time 7:59 AM CST 5:32 PM CST
Civil Twilight 7:29 AM CST 6:02 PM CST
Nautical Twilight 6:56 AM CST 6:36 PM CST
Astronomical Twilight 6:23 AM CST 7:08 PM CST
Moon 9:12 PM CST (1/8) 9:47 AM CST (1/8)
Length of Visible Light 10h 33m
Length of Day
9h 33m
Waning Gibbous, 89% of the Moon is Illuminated
Jan 8
Waning Gibbous
Jan 13
Last Quarter
Jan 20
New
Jan 26
First Quarter
Feb 3
Full

Hourly Weather History & Observations

Time (CST) Temp. Windchill Dew Point Humidity Pressure Visibility Wind Dir Wind Speed Gust Speed Precip Events Conditions
12:53 AM 10.0 °F -5.9 °F 1.0 °F 67% 30.54 in 10.0 mi South 13.8 mph - N/A   Clear
1:53 AM 12.0 °F -3.4 °F 3.0 °F 67% 30.45 in 10.0 mi SSW 13.8 mph 25.3 mph N/A   Clear
2:53 AM 14.0 °F -1.4 °F 3.9 °F 64% 30.38 in 10.0 mi SSW 15.0 mph 26.5 mph N/A   Clear
3:53 AM 14.0 °F -0.8 °F 3.9 °F 64% 30.31 in 10.0 mi SSW 13.8 mph 28.8 mph N/A   Clear
5:53 AM 19.0 °F 5.6 °F 10.0 °F 68% 30.17 in 10.0 mi SSW 13.8 mph - N/A   Clear
6:53 AM 19.0 °F 7.5 °F 10.9 °F 71% 30.17 in 10.0 mi WSW 10.4 mph - N/A   Clear
7:53 AM 19.9 °F 9.3 °F 12.9 °F 74% 30.12 in 10.0 mi WSW 9.2 mph - N/A   Clear
8:53 AM 24.1 °F 14.4 °F 16.0 °F 71% 30.11 in 10.0 mi WSW 9.2 mph - N/A   Clear
9:53 AM 26.1 °F 17.6 °F 18.0 °F 71% 30.11 in 10.0 mi West 8.1 mph - N/A   Clear
10:53 AM 32.0 °F 26.4 °F 21.0 °F 64% 30.12 in 10.0 mi West 5.8 mph - N/A   Clear
11:53 AM 41.0 °F 34.7 °F 25.0 °F 53% 30.09 in 10.0 mi NNW 10.4 mph - N/A   Clear
12:53 PM 45.0 °F 38.9 °F 28.0 °F 52% 30.08 in 10.0 mi North 12.7 mph - N/A   Clear
1:53 PM 46.9 °F - 30.9 °F 54% 30.07 in 10.0 mi North 16.1 mph - N/A   Clear
2:53 PM 46.9 °F - 32.0 °F 56% 30.09 in 10.0 mi North 19.6 mph 28.8 mph N/A   Clear
3:53 PM 48.0 °F - 32.0 °F 54% 30.14 in 10.0 mi North 18.4 mph 24.2 mph N/A   Clear
4:53 PM 43.0 °F 34.0 °F 30.9 °F 62% 30.19 in 10.0 mi North 21.9 mph 34.5 mph N/A   Clear
5:53 PM 37.0 °F 25.4 °F 28.9 °F 73% 30.27 in 10.0 mi NNE 25.3 mph 35.7 mph N/A   Clear
6:53 PM 34.0 °F 22.1 °F 24.1 °F 67% 30.36 in 10.0 mi North 21.9 mph 27.6 mph N/A   Mostly Cloudy
7:53 PM 30.0 °F 16.6 °F 21.0 °F 69% 30.42 in 10.0 mi North 23.0 mph 32.2 mph N/A   Overcast
8:53 PM 27.0 °F 13.5 °F 15.1 °F 61% 30.49 in 10.0 mi NNE 19.6 mph - N/A   Overcast
9:53 PM 24.1 °F 10.6 °F 12.0 °F 60% 30.52 in 10.0 mi North 17.3 mph - N/A   Overcast
10:53 PM 24.1 °F 11.0 °F 10.9 °F 57% 30.53 in 10.0 mi North 16.1 mph - N/A   Overcast
11:53 PM 23.0 °F 10.1 °F 10.0 °F 58% 30.55 in 10.0 mi North 15.0 mph - N/A   Overcast